Home > Time Zones > World Clock > Weather > India > Surat > Past weeks

Flag for India Weather past 2 weeks in Surat, Gujarat, India

Now
111 °F

Clear.


Feels Like: 110 °F
Forecast: 79 / 97 °F
Wind: 14 mph from West

Location: Ahmadabad Airport

Current Time: Apr 18, 2015 at 2:57:48 PM

Latest Report: Apr 18, 2015 at 2:10 PM


Visibility: 3 mi

Pressure: 29.65 "Hg

Humidity: 15%

Dew point: 54 °F

Location of SuratLocation

Historic Weather in Surat — Graph

°F

Surat temperature yesterday

Maximum temperature yesterday: 109 °F (at 3:40 PM)
Minimum temperature yesterday: 81 °F (at 4:40 AM)
Average temperature yesterday: 96 °F

Past Weeks' High & Low Weather Summary

 TemperatureHumidityPressure
High109 °F (Apr 17, 3:40 PM)83% (Apr 12, 5:40 PM)29.95 "Hg (Apr 12, 5:40 PM)
Low68 °F (Apr 12, 5:40 PM)15% (Apr 3, 4:40 PM)29.59 "Hg (Apr 4, 4:40 PM)
Average89 °F45%29.78 "Hg
* Reported Apr 3 1:40 PM — Apr 18 1:40 PM, Surat, Weather by CustomWeather, © 2015

Note: Actual official high and low records may vary slightly from our data, if they occured in-between our weather recording intervals... More about our weather records

Advertising

Surat weather history for previous 24 hours

 ConditionsComfort  
Time TempWeatherWind HumidityBarometerVisibility
1:40 PM
Sat, Apr 18
109 °FClear.12 mph17%29.65 "Hg3 mi
1:10 PM109 °FClear.8 mph17%29.68 "Hg3 mi
12:10 PM104 °FClear.8 mph21%29.74 "Hg3 mi
11:40 AM104 °FClear.7 mph23%29.74 "Hg3 mi
11:10 AM100 °FClear.8 mph25%29.77 "Hg3 mi
10:40 AM99 °FClear.7 mph27%29.77 "Hg3 mi
10:10 AM95 °FClear.6 mph30%29.77 "Hg3 mi
8:40 AM88 °FClear.6 mph38%29.77 "Hg2 mi
7:40 AM86 °FClear.6 mph35%29.77 "Hg2 mi
7:10 AM84 °FClear.5 mph37%29.74 "Hg2 mi
6:40 AM86 °FClear.3 mph35%29.74 "Hg2 mi
5:40 AM88 °FClear.6 mph29%29.71 "Hg2 mi
5:10 AM88 °FClear.7 mph29%29.71 "Hg2 mi
4:40 AM88 °FClear.6 mph29%29.71 "Hg2 mi
4:10 AM90 °FClear.6 mph29%29.71 "Hg2 mi
3:40 AM88 °FClear.5 mph33%29.71 "Hg2 mi
3:10 AM86 °FClear.5 mph38%29.71 "Hg2 mi
2:40 AM88 °FClear.5 mph38%29.71 "Hg2 mi
2:10 AM88 °FClear.5 mph38%29.71 "Hg2 mi
1:40 AM88 °FClear.5 mph43%29.74 "Hg2 mi
12:40 AM91 °FClear.8 mph38%29.74 "Hg2 mi
11:40 PM
Fri, Apr 17
91 °FClear.9 mph41%29.74 "Hg2 mi
9:40 PM97 °FClear.No wind30%29.74 "Hg2 mi
9:10 PM97 °FClear.No wind30%29.74 "Hg2 mi
8:40 PM95 °FClear.No wind32%29.74 "Hg2 mi
8:10 PM97 °FClear.No wind32%29.74 "Hg2 mi
7:40 PM99 °FClear.No wind29%29.71 "Hg2 mi
7:10 PM100 °FClear.2 mph25%29.71 "Hg2 mi
6:10 PM104 °FClear.2 mph24%29.71 "Hg4 mi
5:40 PM108 °FClear.2 mph20%29.71 "Hg4 mi
5:10 PM108 °FClear.5 mph20%29.71 "Hg4 mi
4:40 PM108 °FClear.6 mph22%29.71 "Hg4 mi
4:10 PM108 °FClear.5 mph20%29.71 "Hg4 mi
3:40 PM109 °FClear.6 mph19%29.71 "Hg4 mi
2:40 PM108 °FClear.5 mph23%29.74 "Hg4 mi
2:10 PM108 °FClear.3 mph22%29.77 "Hg4 mi
Weather by CustomWeather, © 2015

See weather overviewHow to use our weather pages